Regional Weather Roundup
Issued by NWS

Home | Current Version | Previous Version | Text Only | Print | Product List | Glossary Off
Versions: 1 2 3 4 5 6 7 8 9 10 11 12 13 14 15 16 17 18 19 20 21 22 23 24 25 26 27 28 29 30 31 32 33 34 35 36 37 38 39 40 41 42 43 44 45 46 47 48 49 50

000
ASUS43 KMKX 180620
RWRWI

WISCONSIN REGIONAL WEATHER ROUNDUP
NATIONAL WEATHER SERVICE MILWAUKEE/SULLIVAN WI
1200 AM CST SUN FEB 18 2018

NOTE: "FAIR" INDICATES FEW OR NO CLOUDS BELOW 12,000 FEET WITH NO
SIGNIFICANT WEATHER AND/OR OBSTRUCTIONS TO VISIBILITY.

WIZ001-002-006>008-014>016-023>028-180700-
NORTHWEST WISCONSIN

CITY           SKY/WX    TMP DP  RH WIND       PRES   REMARKS
SUPERIOR ARPT  FAIR      11   3  70 S5        30.05R WCI   3
6HR MIN TEMP:  12; 6HR MAX TEMP:  26;

ASHLAND        FAIR      17   5  59 W8        30.03R WCI   7
6HR MIN TEMP:  17; 6HR MAX TEMP:  28;

HAYWARD        FAIR      18   6  59 CALM      30.01R
6HR MIN TEMP:  18; 6HR MAX TEMP:  30;

SIREN          FAIR      14   5  65 W5        30.05S WCI   7
6HR MIN TEMP:  14; 6HR MAX TEMP:  28;

CUMBERLAND     FAIR      14   1  57 W6        30.03R WCI   5
RICE LAKE      FAIR      15   6  66 CALM      30.06R
6HR MIN TEMP:  15; 6HR MAX TEMP:  29;

CHETEK         FAIR      16   7  66 CALM      30.06R
6HR MIN TEMP:  16; 6HR MAX TEMP:  30;

LADYSMITH      FAIR      18   8  64 W6        30.04R WCI   9
6HR MIN TEMP:  17; 6HR MAX TEMP:  31;

EAU CLAIRE     FAIR       9   4  80 S6        30.07R WCI  -1
6HR MIN TEMP:   9; 6HR MAX TEMP:  27;

MENOMONIE      FAIR      20   8  60 SW5       30.08S WCI  13
6HR MIN TEMP:  19; 6HR MAX TEMP:  30;

NEW RICHMOND   FAIR       9   3  75 CALM      30.07R
6HR MIN TEMP:   9; 6HR MAX TEMP:  30;

OSCEOLA        FAIR      11   5  77 CALM      30.09S
6HR MIN TEMP:  10; 6HR MAX TEMP:  30;

$$

WIZ003>005-009-010-017-018-180700-
NORTH CENTRAL WISCONSIN

CITY           SKY/WX    TMP DP  RH WIND       PRES   REMARKS
MANITOWISH WTR FAIR      14   5  69 W3        29.95R
6HR MIN TEMP:  14; 6HR MAX TEMP:  27;

ARBOR VITAE    FAIR      19  10  67 W6        29.95R WCI  11
6HR MIN TEMP:  19; 6HR MAX TEMP:  29;

WOODRUFF       FAIR      19  10  67 W6        29.95R WCI  11
6HR MIN TEMP:  19; 6HR MAX TEMP:  29;

RHINELANDER    FAIR      17  10  74 W8        29.95R WCI   7
6HR MIN TEMP:  15; 6HR MAX TEMP:  26; 6HR PCP: TRACE;

EAGLE RIVER    FAIR      18   8  65 W7        29.94R WCI   8
6HR MIN TEMP:  18; 6HR MAX TEMP:  27;

LAND O LAKES   FAIR      19   7  60 W7        29.95R WCI  10
6HR MIN TEMP:  19; 6HR MAX TEMP:  29;

PHILLIPS       FAIR      18   9  67 W3        29.99R
6HR MIN TEMP:  18; 6HR MAX TEMP:  29;

TOMAHAWK       FAIR      17  12  80 W5        29.99R WCI  10
6HR MIN TEMP:  16; 6HR MAX TEMP:  25;

MEDFORD        FAIR      15   8  74 W5        30.01R WCI   8
6HR MIN TEMP:  15; 6HR MAX TEMP:  23;

MERRILL        FAIR      17  14  89 W5        30.00R WCI   9
6HR MIN TEMP:  17; 6HR MAX TEMP:  25;

$$

WIZ029-030-035-036-043>047-180700-
CENTRAL WISCONSIN

CITY           SKY/WX    TMP DP  RH WIND       PRES   REMARKS
WAUSAU         FAIR      19  13  77 W8        30.01R WCI   9
6HR MIN TEMP:  19; 6HR MAX TEMP:  25;

MOSINEE        FAIR      18  18 100 W9        30.03R WCI   6
MARSHFIELD     FAIR      17  15  92 W7        30.02R WCI   8
6HR MIN TEMP:  16; 6HR MAX TEMP:  25;

STEVENS POINT  FAIR      20  19  94 W5        30.04R WCI  14
6HR MIN TEMP:  20; 6HR MAX TEMP:  25;

WAUPACA        FAIR      26  21  81 W8        30.05R WCI  17
6HR MIN TEMP:  23; 6HR MAX TEMP:  30;

WAUTOMA        FAIR      23  20  88 SW10      30.07R WCI  12
6HR MIN TEMP:  22; 6HR MAX TEMP:  28;

WISC RAPIDS    FAIR      21  16  81 NW7       30.06R WCI  12
6HR MIN TEMP:  20; 6HR MAX TEMP:  27;

CAMP DOUGLAS   FAIR      20  17  88 W6        30.07R WCI  12
6HR MIN TEMP:  20; 6HR MAX TEMP:  28;

$$

WIZ011>013-019>022-031-037>040-048>050-180700-
NORTHEAST WISCONSIN

CITY           SKY/WX    TMP DP  RH WIND       PRES   REMARKS
ANTIGO         FAIR      17  15  92 W7        29.97R WCI   7
6HR MIN TEMP:  17; 6HR MAX TEMP:  23;

SHAWANO        FAIR      25  21  83 W5        30.02R WCI  20
6HR MIN TEMP:  25; 6HR MAX TEMP:  29;

OCONTO         FAIR      22  19  86 W5        30.02R WCI  16
6HR MIN TEMP:  22; 6HR MAX TEMP:  27;

STURGEON BAY   FAIR      24  20  84 W10       30.02R WCI  14
6HR MIN TEMP:  24; 6HR MAX TEMP:  26; 6HR PCP: TRACE;

GREEN BAY      FAIR      23  18  81 SW8       30.04R WCI  14
6HR MIN TEMP:  23; 6HR MAX TEMP:  28;

MANITOWOC      FAIR      25  21  85 W12       30.06R WCI  14
6HR MIN TEMP:  25; 6HR MAX TEMP:  28;

APPLETON       FAIR      23  18  80 SW8       30.02R WCI  14
CLINTONVILLE   FAIR      21  17  86 SW3       30.03R
6HR MIN TEMP:  21; 6HR MAX TEMP:  28;

OSHKOSH        FAIR      24  20  84 SW5       30.05R WCI  18
6HR MIN TEMP:  24; 6HR MAX TEMP:  27;

$$

WIZ032>034-041-042-053>061-180700-
SOUTHWEST WISCONSIN

CITY           SKY/WX    TMP DP  RH WIND       PRES   REMARKS
LA CROSSE      FAIR      19  16  88 NE3       30.11R
6HR MIN TEMP:  18; 6HR MAX TEMP:  31;

SPARTA         FAIR      14  13  95 W3        30.11R
6HR MIN TEMP:  11; 6HR MAX TEMP:  28;

VIROQUA        FAIR      21  20  98 W3        30.07R
6HR MIN TEMP:  20; 6HR MAX TEMP:  28;

BOSCOBEL       FAIR      23  20  88 S5        30.13R WCI  17
6HR MIN TEMP:  20; 6HR MAX TEMP:  31;

PRAIRIE DU CHI FAIR      25  21  85 W5        30.13R WCI  19
6HR MIN TEMP:  24; 6HR MAX TEMP:  31;

PLATTEVILLE    FAIR      16  16 100 SW8       30.13R WCI   5
6HR MIN TEMP:  16; 6HR MAX TEMP:  29;

$$

WIZ056-057-062-063-064-067-068-180700-
SOUTH CENTRAL WISCONSIN

CITY           SKY/WX    TMP DP  RH WIND       PRES   REMARKS
REEDSBURG      FAIR      25  21  86 SW7       30.09R WCI  17
6HR MIN TEMP:  24; 6HR MAX TEMP:  28;

BARABOO/DELLS  FAIR      24  21  87 W6        30.07S WCI  17
6HR MIN TEMP:  24; 6HR MAX TEMP:  28;

LONE ROCK      FAIR      23  21  92 W5        30.11R WCI  17
6HR MIN TEMP:  19; 6HR MAX TEMP:  29;

MINERAL POINT  FAIR      25  25 100 W7        30.09R WCI  17
MADISON        FAIR      22  19  89 SW3       30.10R
6HR MIN TEMP:  21; 6HR MAX TEMP:  28;

MIDDLETON      FAIR      25  22  90 W3        30.09R
6HR MIN TEMP:  24; 6HR MAX TEMP:  30;

WATERTOWN      FAIR      20  20 100 SW3       30.09R
6HR MIN TEMP:  20; 6HR MAX TEMP:  28;

MONROE         FAIR      25  23  93 SW13      30.10R WCI  13
JANESVILLE     FAIR      25  25 100 SW3       30.11R
$$

WIZ051-052-058>065-066-070>072-180700-
SOUTHEAST WISCONSIN

CITY           SKY/WX    TMP DP  RH WIND       PRES   REMARKS
MILWAUKEE      FAIR      28  22  78 W5        30.09R WCI  23
6HR MIN TEMP:  28; 6HR MAX TEMP:  31; 6HR PCP: TRACE;

WAUKESHA       FAIR      23  21  93 W8        30.10R WCI  14
MILWAUKEE/TIMM FAIR      27  19  74 W6        30.10R WCI  20
RACINE         FAIR      27  22  81 W6        30.12R WCI  20
6HR MIN TEMP:  27; 6HR MAX TEMP:  31; 6HR PCP: TRACE;

BURLINGTON     FAIR      22  18  86 SW5       30.11R WCI  15
6HR MIN TEMP:  22; 6HR MAX TEMP:  29;

KENOSHA        FAIR      26  21  81 W9        30.10R WCI  17
6HR MIN TEMP:  26; 6HR MAX TEMP:  31; 6HR PCP: TRACE;

FOND DU LAC    FAIR      23  17  78 SW7       30.07R WCI  15
6HR MIN TEMP:  23; 6HR MAX TEMP:  28;

SHEBOYGAN      FAIR      24  20  84 W9        30.06R WCI  14
6HR MIN TEMP:  24; 6HR MAX TEMP:  28;

WEST BEND      FAIR      27  23  86 W9        30.07R WCI  17
JUNEAU         FAIR      20  18  92 SW7       30.09R WCI  11
6HR MIN TEMP:  19; 6HR MAX TEMP:  27;

$$

LSZ147-162-180700-
LAKE SUPERIOR

STATION/POSITION TIME  TEMP    WIND        PRES    WAVE
                       AIR SEA DIR/SP/G            HT/PER
                 (UTC) (F)     (DEG/KT/KT) (MB)    (FT/S)
DEVILS ISLAND    0600   20     290/ 18/ 22 1017.3R
SAXON HARBOR     0540   22     270/  6/ 11 1016.3R
$$

LMZ867-665-643>646-180700-
LAKE MICHIGAN

STATION/POSITION TIME  TEMP    WIND        PRES



USA.gov is the U.S. government's official web portal to all federal, state and local government web resources and services.